Regional Weather Roundup
Issued by NWS

Current Version | Previous Version | Text Only | Print | Product List | Glossary On
Versions: 1 2 3 4 5 6 7 8 9 10 11 12 13 14 15 16 17 18 19 20 21 22 23 24 25 26 27 28 29 30 31 32 33 34 35 36 37 38 39 40 41 42 43 44 45 46 47 48 49 50
000
ASUS44 KFWD 010803
RWRTX
NORTH TEXAS HOURLY WEATHER ROUNDUP
NATIONAL WEATHER SERVICE FORT WORTH TX
300 AM CDT TUE SEP 01 2015

NOTE: "FAIR" INDICATES FEW OR NO CLOUDS BELOW 12,000 FEET WITH NO
SIGNIFICANT WEATHER AND/OR OBSTRUCTIONS TO VISIBILITY.

TXZ118-119-010900-
DALLAS/FORT WORTH METROPLEX

CITY           SKY/WX    TMP DP  RH WIND       PRES   REMARKS
DFW AIRPORT    CLEAR     79  68  69 S10       30.01S
DALLAS LOVE    PTCLDY    80  68  66 S13       30.02S
FTW MEACHAM    CLEAR     79  67  66 S10       30.01S
DAL-EXECUTIVE  CLEAR     78  68  71 S9        30.02S
FTW-ALLIANCE   PTCLDY    77  67  71 S8        30.01S
FTW-NAS-JRB    CLEAR     79  68  69 S10       30.01S
ARLINGTON      CLEAR     79  67  66 S9        30.02S
GRAND PRAIRIE  CLEAR     79  69  73 S8        30.03S
ADDISON        CLEAR     80  70  72 S8        30.04S
MESQUITE       MOCLDY    75  69  82 S6        30.03S
LANCASTER      PTCLDY    77  67  71 S7        30.04S
$$

TXZ091>094-102>105-117-120-121-131>134-010900-
NORTH CENTRAL TEXAS

CITY           SKY/WX    TMP DP  RH WIND       PRES   REMARKS
SHRMAN/DENISON CLEAR     78  67  71 S10       30.03S
BOWIE          CLEAR     72  64  74 SE5       30.02S
BRIDGEPORT     CLEAR     74  67  78 CALM      30.02S
DECATUR        CLEAR     77  65  65 S9        30.03R
DENTON         CLEAR     76  67  73 SE7       30.01S
MCKINNEY       CLEAR     78  67  68 S8        30.02S
ROCKWALL       PTCLDY    77  69  77 S6        30.03S
TERRELL        MOCLDY    75  69  81 S5        30.04S
WAXAHACHIE     CLEAR     75  69  82 SE5       30.04S
CLEBURNE         N/A     75  70  83 S8        30.04S
$$

TXZ083>090-098>101-113>116-127>130-139>142-154-155-010900-
WESTERN NORTH TEXAS

CITY           SKY/WX    TMP DP  RH WIND       PRES   REMARKS
WICHITA FALLS  CLEAR     72  63  73 SE8       29.99S
WF-KICKAPOO    CLEAR     77  65  67 SE9       30.00S
VERNON         CLEAR     77  57  50 SE7       29.99S
ABILENE        CLEAR     76  62  62 S13       30.02S
ABILENE-DYESS  CLEAR     75  61  61 SE14      30.01R
BRECKENRIDGE   CLEAR     79  65  63 S8        30.00F
MINERAL WELLS  CLEAR     73  67  81 SE8       30.00S
STEPHENVILLE   CLEAR     73  66  79 S3        30.06S
COMANCHE       CLEAR     75  68  78 S9        30.03F
COLEMAN        CLEAR     76  66  72 S7        30.04S
BRADY          CLEAR     75  66  73 S7        30.04F
$$

TXZ143>147-156>162-174-175-010900-
CENTRAL TEXAS

CITY           SKY/WX    TMP DP  RH WIND       PRES   REMARKS
WACO           PTCLDY    77  68  73 S10       30.03S
WACO-MCGREGOR  CLEAR     74  69  85 SE7       30.03S
CORSICANA      MOCLDY    77  70  79 SE9       30.05R
MEXIA          CLEAR     72  69  91 E5        30.04S
HEARNE         PTCLDY    73  70  91 CALM      30.05S
CAMERON        CLEAR     74  70  87 SE5       30.03F
TEMPLE         CLEAR     73  64  73 S9        30.03F
KILLEEN        CLEAR     74  69  84 S6        30.03S
KILLEEN-SKYLRK CLEAR     73  64  73 S7        30.02F
FORT HOOD      CLEAR     73  69  86 SE6       30.03R
GATESVILLE     CLEAR     73  66  78 SE3       30.05F
HAMILTON       CLEAR     73  66  79 S7        30.04F
$$

TXZ095>097-106>112-122>126-135>138-148>153-164>167-010900-
EAST TEXAS

CITY           SKY/WX    TMP DP  RH WIND       PRES   REMARKS
PARIS          PTCLDY    73  61  64 S6        30.05R
SULPHUR SPRNGS PTCLDY    77  67  71 S6        30.06S
MINEOLA        CLEAR     77  70  78 S3        30.05S
TYLER          PTCLDY    73  68  84 S7        30.04F
LONGVIEW       MOCLDY    74  68  81 CALM      30.04S
MARSHALL       MOCLDY    71  68  91 CALM      30.07S
ATHENS         CLEAR     72  68  88 CALM      30.04S
PALESTINE      PTCLDY    74  71  88 S5        30.05S
JACKSONVILLE   MOCLDY    74  70  85 S6        30.07F
HENDERSON      MOCLDY    71  68  90 CALM      30.05F
CENTER         FAIR      73  70  88 CALM      30.04S
NACOGDOCHES    MOCLDY    70  66  88 CALM      30.04F
LUFKIN         MOCLDY    71  69  93 CALM      30.04F
$$

SUPPLEMENTAL OBSERVATIONS (CENTRAL)

CITY           SKY/WX    TMP DP  RH WIND       PRES   REMARKS
$$

SUPPLEMENTAL OBSERVATIONS (WEST)

CITY           SKY/WX    TMP DP  RH WIND       PRES   REMARKS
$$

SUPPLEMENTAL OBSERVATIONS (EAST)

CITY           SKY/WX    TMP DP  RH WIND       PRES   REMARKS
$$

SUPPLEMENTAL OBSERVATIONS ARE A COLLECTION OF AUTOMATED INSTRUMENTS
THAT ARE MAINTAINED BY A VARIETY OF FEDERAL AND STATE AGENCIES.
CERTAIN ELEMENTS...SUCH AS HUMIDITY VALUES AND SUSTAINED WIND
SPEEDS...MAY BE APPROXIMATED.




USA.gov is the U.S. government's official web portal to all federal, state and local government web resources and services.